Current weather by "City, St" or "zip code"  
 
Advertise Here

Current Conditions: Indianapolis Mount Comfort Airport, IN

Fair


66.0 F

Last Updated on Jul 27 2021, 1:55 am EDT
Humidity: 100%
Wind Speed: N 0.0 mph
Barometer 30.07 in
Dewpoint: 66.2 F
Visibility: 10.00 mi
Precip: --
Heat Index: NA
Wind Chill: NA
Current conditions at:

Indianapolis Mount Comfort Airport, IN (KMQJ)

Lat: 39.8435 Lon: 85.8971

Local Radar Image active severe weather and emergency alerts image image weather storm and storm spotter reports image weather observation monitoring service image
Local
Radar
Active
Alerts
Storm Reports Obs
Monitoring

Sign-up For Email & Text Message Weather Alert Notification Services


Advertise Here

Observation History for Indianapolis Mount Comfort Airport, IN


Time Wind
(mph)
Vis
(mi)
Weather Precip (in) Temperature (F) Relative
Humidity
Wind
Chill
(F)
Heat
Index
(F)
Pressure
Air Dwpt altimeter
(in)
sea level
(mb)
Rmks
1:55 am EDT N 0.0 10.00 Fair -- 66.0 66.2 100% NA NA 30.07 M
12:55 am EDT N 0.0 10.00 Fair -- 66.0 66.2 100% NA NA 30.07 M
11:55 pm EDT N 0.0 10.00 Fair -- 68.0 68.0 100% NA NA 30.06 M
10:55 pm EDT N 0.0 10.00 Fair -- 70.0 69.8 100% NA NA 30.07 M
9:55 pm EDT N 0.0 10.00 Fair -- 72.0 71.6 100% NA NA 30.05 M
8:55 pm EDT N 4.6 10.00 Fair -- 75.0 73.4 94% NA NA 30.02 M
7:55 pm EDT N 4.6 10.00 Fair -- 81.0 73.4 79% NA 86 30.02 M
6:55 pm EDT N 6.9 10.00 Fair -- 84.0 71.6 66% NA 89 30.02 M
5:55 pm EDT NE 6.9 10.00 Fair -- 86.0 69.8 59% NA 91 30.02 M
4:55 pm EDT NE 6.9 10.00 Fair -- 86.0 69.8 59% NA 91 30.02 M
3:55 pm EDT NE 8.1 10.00 Fair -- 88.0 68.0 52% NA 92 30.04 M
2:55 pm EDT NE 5.8 10.00 Fair -- 88.0 68.0 52% NA 92 30.04 M
1:55 pm EDT NE 5.8 10.00 Fair -- 86.0 68.0 55% NA 89 30.04 M
12:55 pm EDT NE 5.8 10.00 Fair -- 86.0 69.8 59% NA 91 30.05 M
11:55 am EDT NE 5.8 10.00 Fair -- 84.0 69.8 62% NA 88 30.05 M
10:55 am EDT N 4.6 10.00 Fair -- 81.0 73.4 79% NA 86 30.04 M
9:55 am EDT NW 3.5 10.00 Fair -- 77.0 73.4 89% NA NA 30.04 M
8:55 am EDT N 3.5 10.00 Fair -- 73.0 73.4 100% NA NA 30.04 M
7:55 am EDT N 0.0 7.00 Fair -- 66.0 66.2 100% NA NA 30.03 M
6:55 am EDT N 0.0 0.25 Sky Obscured -- 64.0 64.4 100% NA NA 30.01 M
5:55 am EDT N 0.0 10.00 Fair -- 66.0 66.2 100% NA NA 30.00 M
4:55 am EDT N 3.5 10.00 Fair -- 68.0 68.0 100% NA NA 29.99 M
3:55 am EDT N 0.0 10.00 Fair -- 68.0 68.0 100% NA NA 29.99 M
2:55 am EDT N 0.0 10.00 Partly Cloudy -- 68.0 68.0 100% NA NA 29.99 M

Regional Weather Observation


Indianapolis, Eagle Creek Airpark, IN (KEYE)

Fair
72.0 F

Indianapolis Mount Comfort Airport, IN (KMQJ)

Fair
66.0 F

Indianapolis International Airport, IN (KIND)

Fair
74.0 F

Anderson Municipal Airport, IN (KAID)

Fair
67.0 F

Frankfort Municipal Airport, IN (KFKR)

Overcast
63.0 F

Greenwood Municipal Airport, IN (KHFY)

Fair
65.0 F
Advertise Here

Advertise Here